Weather History for K2C8 - October, 2013

Change the Weather History Date:

Tuesday, October 8, 2013

  Actual Average (KGAF) Record (KGAF)
Temperature  
Mean Temperature 56 °F -  
Max Temperature 69 °F 57 °F 83 °F (1980)
Min Temperature 44 °F 37 °F 21 °F (1993)
Degree Days  
Heating Degree Days 8    
Growing Degree Days 6 (Base 50)    
Moisture  
Dew Point 44 °F    
Average Humidity 71    
Maximum Humidity 93    
Minimum Humidity 43    
Precipitation  
Precipitation 0.00 in - - ()
Sea Level Pressure  
Sea Level Pressure 29.63 in    
Wind  
Wind Speed 8 mph (SSW)    
Max Wind Speed 14 mph    
Max Gust Speed 17 mph    
Visibility 10 miles    
Events      
Averages and records for this station are not official NWS values.
T = Trace of Precipitation, MM = Missing Value Source: NWS Daily Summary

Daily Weather History Graph

Daily Weather History Graph

Search for Another Location

Airport or City:

Trip Planner

Search our weather history database for the weather conditions in past years. The results will help you decide how hot, cold, wet, or windy it might be!

Date:

Astronomy

Oct. 08, 2013 Rise Set
Actual Time 7:40 AM CDT 6:54 PM CDT
Civil Twilight 7:09 AM CDT 7:25 PM CDT
Nautical Twilight 6:32 AM CDT 8:02 PM CDT
Astronomical Twilight 5:55 AM CDT 8:38 PM CDT
Moon 11:55 AM CDT 9:12 PM CDT
Length of Visible Light 12h 16m
Length of Day
11h 13m
Waxing Crescent, 16% of the Moon is Illuminated
Oct 8
Waxing Crescent
Oct 11
First Quarter
Oct 18
Full
Oct 26
Last Quarter
Nov 3
New

Hourly Weather History & Observations

Time (CDT) Temp. Windchill Dew Point Humidity Pressure Visibility Wind Dir Wind Speed Gust Speed Precip Events Conditions
12:15 AM 50.0 °F - 41.0 °F 71% 29.71 in 10.0 mi South 10.4 mph - N/A   Clear
12:35 AM 50.0 °F - 39.2 °F 66% 29.70 in 10.0 mi South 10.4 mph - N/A   Clear
12:55 AM 50.0 °F - 39.2 °F 66% 29.70 in 10.0 mi SSE 10.4 mph - N/A   Clear
1:15 AM 48.2 °F - 39.2 °F 71% 29.70 in 10.0 mi SSE 9.2 mph - N/A   Clear
1:35 AM 48.2 °F - 39.2 °F 71% 29.68 in 10.0 mi SSE 9.2 mph - N/A   Clear
1:55 AM 48.2 °F - 39.2 °F 71% 29.68 in 10.0 mi SSE 9.2 mph - N/A   Clear
2:15 AM 48.2 °F - 39.2 °F 71% 29.68 in 10.0 mi South 10.4 mph - N/A   Clear
2:35 AM 48.2 °F - 39.2 °F 71% 29.67 in 10.0 mi South 10.4 mph - N/A   Clear
2:55 AM 46.4 °F 41.1 °F 39.2 °F 76% 29.66 in 10.0 mi South 11.5 mph - N/A   Clear
3:15 AM 46.4 °F 40.4 °F 41.0 °F 81% 29.66 in 10.0 mi South 13.8 mph - N/A   Clear
3:35 AM 46.4 °F 41.9 °F 41.0 °F 81% 29.65 in 10.0 mi South 9.2 mph - N/A   Clear
3:55 AM 46.4 °F 41.9 °F 41.0 °F 81% 29.64 in 10.0 mi South 9.2 mph - N/A   Clear
4:15 AM 46.4 °F 41.5 °F 41.0 °F 81% 29.64 in 10.0 mi South 10.4 mph - N/A   Clear
4:35 AM 46.4 °F 40.4 °F 41.0 °F 81% 29.62 in 10.0 mi South 13.8 mph - N/A   Clear
4:55 AM 46.4 °F 41.5 °F 41.0 °F 81% 29.62 in 10.0 mi South 10.4 mph 17.3 mph N/A   Clear
5:15 AM 46.4 °F 41.9 °F 41.0 °F 81% 29.62 in 10.0 mi South 9.2 mph - N/A   Clear
5:35 AM 46.4 °F 41.9 °F 41.0 °F 81% 29.61 in 10.0 mi South 9.2 mph - N/A   Clear
5:55 AM 44.6 °F 39.2 °F 41.0 °F 87% 29.61 in 10.0 mi South 10.4 mph - N/A   Clear
6:15 AM 46.4 °F 42.4 °F 41.0 °F 81% 29.60 in 10.0 mi South 8.1 mph - N/A   Clear
6:35 AM 46.4 °F 41.9 °F 41.0 °F 81% 29.60 in 10.0 mi South 9.2 mph - N/A   Clear
6:55 AM 46.4 °F 42.9 °F 41.0 °F 81% 29.61 in 10.0 mi South 6.9 mph - N/A   Clear
7:15 AM 46.4 °F 41.9 °F 41.0 °F 81% 29.60 in 10.0 mi South 9.2 mph - N/A   Clear
7:35 AM 46.4 °F 41.9 °F 41.0 °F 81% 29.59 in 10.0 mi South 9.2 mph - N/A   Clear
7:55 AM 46.4 °F 42.4 °F 41.0 °F 81% 29.59 in 10.0 mi South 8.1 mph - N/A   Clear
8:15 AM 46.4 °F 42.4 °F 41.0 °F 81% 29.58 in 10.0 mi South 8.1 mph - N/A   Clear
8:35 AM 46.4 °F 45.2 °F 41.0 °F 81% 29.58 in 10.0 mi South 3.5 mph - N/A   Clear
8:55 AM 46.4 °F 42.9 °F 42.8 °F 87% 29.57 in 10.0 mi South 6.9 mph - N/A   Clear
9:15 AM 48.2 °F - 42.8 °F 82% 29.58 in 10.0 mi South 9.2 mph - N/A   Clear
9:35 AM 48.2 °F - 42.8 °F 82% 29.59 in 10.0 mi South 8.1 mph - N/A   Clear
9:55 AM 50.0 °F - 44.6 °F 82% 29.59 in 10.0 mi South 8.1 mph - N/A   Clear
10:15 AM 50.0 °F - 44.6 °F 82% 29.58 in 10.0 mi South 4.6 mph - N/A   Clear
10:35 AM 50.0 °F - 44.6 °F 82% 29.58 in 10.0 mi SSW 6.9 mph - N/A   Clear
10:55 AM 51.8 °F - 44.6 °F 76% 29.57 in 10.0 mi South 9.2 mph - N/A   Clear
11:15 AM 53.6 °F - 44.6 °F 72% 29.57 in 10.0 mi South 8.1 mph - N/A   Clear
11:35 AM 53.6 °F - 44.6 °F 72% 29.57 in 10.0 mi South 9.2 mph - N/A   Clear
11:55 AM 55.4 °F - 44.6 °F 67% 29.56 in 10.0 mi SSW 5.8 mph - N/A   Clear
12:15 PM 57.2 °F - 46.4 °F 67% 29.57 in 10.0 mi South 5.8 mph - N/A   Clear
12:35 PM 57.2 °F - 46.4 °F 67% 29.57 in 10.0 mi SSW 3.5 mph - N/A   Clear
12:55 PM 57.2 °F - 46.4 °F 67% 29.57 in 10.0 mi SSW 4.6 mph - N/A   Clear
1:15 PM 59.0 °F - 46.4 °F 63% 29.56 in 10.0 mi Calm Calm - N/A   Clear
1:35 PM 60.8 °F - 46.4 °F 59% 29.57 in 10.0 mi Calm Calm - N/A   Clear
1:55 PM 62.6 °F - 48.2 °F 59% 29.58 in 10.0 mi WNW 3.5 mph - N/A   Clear
2:15 PM 62.6 °F - 46.4 °F 55% 29.58 in 10.0 mi Calm Calm - N/A   Clear
2:35 PM 64.4 °F - 48.2 °F 56% 29.59 in 10.0 mi Calm Calm - N/A   Clear
2:55 PM 64.4 °F - 48.2 °F 56% 29.59 in 10.0 mi Calm Calm - N/A   Clear
3:15 PM 66.2 °F - 48.2 °F 52% 29.60 in 10.0 mi Calm Calm - N/A   Clear
3:35 PM 66.2 °F - 48.2 °F 52% 29.60 in 9.0 mi Calm Calm - N/A   Clear
3:55 PM 68.0 °F - 48.2 °F 49% 29.60 in 10.0 mi Calm Calm - N/A   Clear
4:15 PM 68.0 °F - 48.2 °F 49% 29.60 in 10.0 mi Calm Calm - N/A   Clear
4:35 PM 68.0 °F - 50.0 °F 52% 29.61 in 5.0 mi East 3.5 mph - N/A   Haze
4:55 PM 68.0 °F - 50.0 °F 52% 29.61 in 7.0 mi Calm Calm - N/A   Clear
5:15 PM 69.8 °F - 50.0 °F 49% 29.62 in 10.0 mi Calm Calm - N/A   Clear
5:35 PM 69.8 °F - 48.2 °F 46% 29.62 in 3.0 mi Calm Calm - N/A   Haze
5:55 PM 69.8 °F - 48.2 °F 46% 29.63 in 5.0 mi North - - N/A   Haze
6:15 PM 69.8 °F - 46.4 °F 43% 29.63 in 9.0 mi Calm Calm - N/A   Clear
6:35 PM 64.4 °F - 48.2 °F 56% 29.64 in 10.0 mi Calm Calm - N/A   Clear
6:55 PM 59.0 °F - 50.0 °F 72% 29.65 in 9.0 mi South 3.5 mph - N/A   Clear
7:15 PM 57.2 °F - 50.0 °F 77% 29.66 in 10.0 mi Calm Calm - N/A   Clear
7:35 PM 55.4 °F - 50.0 °F 82% 29.66 in 10.0 mi South 3.5 mph - N/A   Clear
7:55 PM 53.6 °F - 46.4 °F 77% 29.67 in 10.0 mi Calm Calm - N/A   Clear
8:15 PM 50.0 °F - 46.4 °F 87% 29.68 in 10.0 mi Calm Calm - N/A   Clear
8:35 PM 50.0 °F - 46.4 °F 87% 29.69 in 10.0 mi SSW 4.6 mph - N/A   Clear
8:55 PM 48.2 °F - 46.4 °F 93% 29.69 in 10.0 mi SW 3.5 mph - N/A   Clear
9:15 PM 48.2 °F - 44.6 °F 87% 29.70 in 10.0 mi West 5.8 mph - N/A   Clear
9:35 PM 48.2 °F - 46.4 °F 93% 29.71 in 10.0 mi West 6.9 mph - N/A   Clear
9:55 PM 48.2 °F - 46.4 °F 93% 29.72 in 10.0 mi WNW 8.1 mph - N/A   Clear
10:15 PM 48.2 °F - 41.0 °F 76% 29.73 in 10.0 mi WNW 9.2 mph - N/A   Clear
10:35 PM 53.6 °F - 39.2 °F 58% 29.73 in 10.0 mi WNW 10.4 mph - N/A   Clear
10:55 PM 55.4 °F - 37.4 °F 51% 29.73 in 10.0 mi WNW 10.4 mph - N/A   Clear
11:15 PM 55.4 °F - 37.4 °F 51% 29.74 in 10.0 mi WNW 8.1 mph - N/A   Clear
11:35 PM 51.8 °F - 37.4 °F 58% 29.74 in 10.0 mi WNW 6.9 mph - N/A   Clear
11:55 PM 50.0 °F - 37.4 °F 62% 29.75 in 10.0 mi West 5.8 mph - N/A   Clear